[[{"header":{"parameterUnit":"m.s-1","parameterCategory":1,"la1":30.2991,"la2":30.254,"lo1":-89.0895,"lo2":-89.0444,"dy":0.0017,"dx":0.0017,"nx":28,"ny":28,"refTime":"2024-02-07T09:00:00:Z","depth":0,"parameterNumber":2,"parameterNumberName":"U-component_of_WINDS"},"data":[0,0,0,0,0,0,0,0,0,0,0,0,0,0,0,0,0,0,0,0,0,0,0,0,0,0,0,0,0,0,0,0,0,0,0,0,0,0,0,0,0,0,0,0,0,0,0,0,0,0,0,0,0,0,0,0,0,0,-3.8157,-3.8159,0,-3.8337,-3.8339,-3.8341,-3.8347,-3.8344,-3.8342,-3.834,-3.8526,-3.8532,-3.8539,0,0,0,0,0,0,0,0,0,0,0,0,0,-3.7822,-3.7828,-3.8157,-3.8159,-3.8162,-3.8336,-3.8339,-3.8341,-3.8347,-3.8344,-3.8342,-3.8339,-3.8523,-3.8531,-3.854,0,0,0,0,0,0,0,0,0,0,0,0,0,-3.7981,-3.783,-3.8157,-3.8185,-3.819,-3.8336,-3.8339,-3.8342,-3.8348,-3.8344,-3.8341,-3.8338,-3.8521,-3.8531,-3.8541,-3.8671,0,0,-3.8573,-3.8577,0,0,0,0,0,0,0,0,-3.7972,-3.7993,-3.8179,-3.8184,-3.8189,-3.8316,-3.8289,-3.8452,-3.8348,-3.8288,-3.834,-3.8336,-3.8459,-3.8474,-3.8515,-3.8679,-3.8687,-3.8574,-3.858,-3.8585,-3.8588,0,0,0,0,0,0,0,-3.7961,-3.7986,-3.8228,-3.8182,-3.8188,-3.819,-3.8209,-3.832,-3.8389,-3.8293,-3.8294,-3.8315,-3.8461,-3.8505,-3.8519,-3.869,-3.8573,-3.8583,-3.8589,-3.8593,-3.8971,-3.8975,0,0,0,0,0,0,-3.7944,-3.7976,-3.8222,-3.8233,-3.807,-3.8199,-3.822,-3.8278,-3.8388,-3.8402,-3.8317,-3.8314,-3.8488,-3.8507,-3.8526,-3.8685,-3.8585,-3.8594,-3.86,-3.8967,-3.8972,-3.8976,0,0,0,0,0,0,-3.7937,-3.7966,-3.8215,-3.8105,-3.8137,-3.8208,-3.8274,-3.8284,-3.8328,-3.8407,-3.8419,-3.8349,-3.8487,-3.8511,-3.8635,-3.8691,-3.8599,-3.8608,-3.8963,-3.8969,-3.8974,-3.9003,0,0,0,0,0,0,-3.7927,-3.7963,-3.8012,-3.8106,-3.8143,-3.832,-3.8277,-3.829,-3.8345,-3.8343,-3.844,-3.8453,-3.8486,-3.8619,-3.8645,-3.8704,-3.8617,-3.8958,-3.8965,-3.8972,-3.8998,-3.9009,-3.9019,0,0,0,0,0,-3.7915,-3.8014,-3.8015,-3.8045,-3.8206,-3.8323,-3.8345,-3.838,-3.835,-3.84,-3.8452,-3.845,-3.8681,-3.8632,-3.8661,-3.8724,-3.8955,-3.8963,-3.8972,-3.8993,-3.9007,-3.9019,0,0,0,0,0,0,-3.7925,-3.8026,-3.8029,-3.8161,-3.8233,-3.8324,-3.8389,-3.8394,-3.8477,-3.8472,-3.8513,-3.8535,-3.8657,-3.8703,-3.8646,-3.8856,-3.8815,-3.8829,-3.882,-3.8835,-3.8845,-3.8831,-3.8625,0,0,0,0,0,-3.7942,-3.8028,-3.8113,-3.8221,-3.8258,-3.8317,-3.837,-3.8391,-3.8468,-3.8499,-3.8559,-3.8634,-3.8724,-3.8782,-3.8869,-3.9005,-3.9026,-3.9063,-3.9074,-3.9082,-3.9094,-3.917,-3.9187,-3.9004,-3.9004,-3.9004,0,0,-3.7979,-3.8045,-3.8097,-3.8225,-3.8284,-3.8373,-3.8343,-3.8438,-3.8505,-3.8514,-3.8633,-3.8681,-3.8768,-3.8898,-3.8959,-3.894,-3.915,-3.9093,-3.9099,-3.9107,-3.918,-3.9197,-3.9213,-3.901,-3.9009,-3.9008,0,0,-3.8091,-3.815,-3.8247,-3.8306,-3.8396,-3.8435,-3.8459,-3.855,-3.8581,-3.8702,-3.8711,-3.8791,-3.8945,-3.9007,-3.9058,-3.9196,-3.9198,-3.9224,-3.928,-3.9353,-3.9367,-3.938,-3.9429,-3.9446,-3.9236,-3.9236,-3.9236,0,-3.8125,-3.8259,-3.8296,-3.8391,-3.8447,-3.846,-3.8558,-3.8615,-3.8729,-3.8768,-3.8746,-3.8939,-3.8999,-3.9144,-3.9178,-3.9219,-3.9247,-3.9212,-3.9362,-3.9376,-3.9388,-3.9435,-3.9453,-3.9238,-3.9238,-3.9238,-3.9238,0,-3.8297,-3.839,-3.8457,-3.8566,-3.863,-3.8727,-3.8779,-3.884,-3.8856,-3.8898,-3.9022,-3.9095,-3.9196,-3.9233,-3.925,-3.9381,-3.9367,-3.9353,-3.9313,-3.9407,-3.9452,-3.947,-3.9242,-3.9241,-3.924,-3.924,0,0,-3.8417,-3.8546,-3.857,-3.862,-3.8721,-3.8794,-3.8892,-3.8992,-3.9043,-3.9122,-3.9205,-3.9336,-3.9324,-3.9383,-3.9407,-3.9472,-3.9576,-3.9451,-3.9453,-3.947,-3.9725,-3.9733,-3.9753,-3.9579,-3.9582,-3.9585,-3.9717,0,-3.8539,-3.8712,-3.8749,-3.8899,-3.8986,-3.9,-3.9086,-3.9157,-3.92,-3.928,-3.9328,-3.9419,-3.9397,-3.9433,-3.9497,-3.955,-3.9628,-3.9541,-3.9657,-3.966,-3.9632,-3.9777,-3.9786,-3.9906,-3.9735,-3.9738,-3.974,0,-3.8704,-3.8786,-3.8944,-3.9035,-3.9072,-3.9148,-3.9243,-3.932,-3.9402,-3.9429,-3.9495,-3.9513,-3.9617,-3.9573,-3.9716,-3.9656,-3.9706,-3.974,-3.9745,-3.9756,-3.9704,-3.979,-3.9946,-3.9963,-3.9768,-3.9766,-3.9764,0,-3.8774,-3.8925,-3.904,-3.9082,-3.919,-3.9244,-3.9291,-3.937,-3.9428,-3.9512,-3.955,-3.9645,-3.9696,-3.977,-3.9813,-3.9777,-3.9954,-3.9913,-3.9978,-3.9977,-4.0013,-4.001,-4.0177,-4.0048,-4.0048,-4.0047,-4.0047,0,-3.8906,-3.9002,-3.9073,-3.9143,-3.9251,-3.9294,-3.9401,-3.9448,-3.9519,-3.9599,-3.9619,-3.9694,-3.9748,-3.9831,-3.9866,-3.998,-4.0003,-4.0028,-4.0036,-4.0025,-4.0022,-4.0057,-4.0049,-4.0052,-4.0051,-4.005,-4.0049,0,-3.9002,-3.9053,-3.9179,-3.9271,-3.9297,-3.9373,-3.9453,-3.9522,-3.9566,-3.9667,-3.9694,-3.9762,-3.9861,-3.9913,-4.0037,-4.0061,-4.0188,-4.0192,-4.0159,-4.0162,-4.0224,-4.0217,-4.0419,-4.0447,-4.03,-4.0302,-4.0303,0,-3.9081,-3.9155,-3.9256,-3.9311,-3.936,-3.9448,-3.9508,-3.9554,-3.9615,-3.9715,-3.9772,-3.9872,-3.9954,-4.0112,-4.0174,-4.0269,-4.0274,-4.0339,-4.0289,-4.0276,-4.0274,-4.0268,-4.0276,-4.0347,-4.0348,-4.0349,-4.035,0,-3.9216,-3.9238,-3.9322,-3.9417,-3.9487,-3.9563,-3.9638,-3.9683,-3.9741,-3.9809,-3.991,-3.9974,-4.0101,-4.02,-4.03,-4.035,-4.036,-4.0366,-4.0386,-4.0374,-4.0352,-4.0364,-4.0182,-4.036,-4.0359,-4.0358,-4.0358,-4.0357,-3.9305,-3.9372,-3.9454,-3.9547,-3.9609,-3.968,-3.9749,-3.9802,-3.9887,-3.9993,-4.0016,-4.0123,-4.0205,-4.0341,-4.0394,-4.0479,-4.0466,-4.0495,-4.0502,-4.0508,-4.051,-4.034,-4.0498,-4.0498,-4.0498,-4.0497,-4.0497,0,-3.944,-3.9494,-3.958,-3.9685,-3.9759,-3.9762,-3.9847,-3.9908,-4.0002,-4.0078,-4.0158,-4.0275,-4.0372,-4.0442,-4.0541,-4.0596,-4.0603,-4.062,-4.0616,-4.0627,-4.0517,-4.0489,-4.0613,-4.0613,-4.0613,-4.0613,-4.0613,-4.0613,-3.9519,-3.9632,-3.9664,-3.9809,-3.9862,-3.9967,-4.0014,-4.008,-4.0141,-4.027,-4.035,-4.0395,-4.0469,-4.0574,-4.0663,-4.0682,-4.0717,-4.0733,-4.0752,-4.0647,-4.0635,-4.0623,-4.0597,-4.0741,-4.0741,-4.0854,-4.0856,-4.0856]},{"header":{"parameterUnit":"m.s-1","parameterCategory":1,"la1":30.2991,"la2":30.254,"lo1":-89.0895,"lo2":-89.0444,"dy":0.0017,"dx":0.0017,"nx":28,"ny":28,"refTime":"2024-02-07T09:00:00:Z","depth":0,"parameterNumber":3,"parameterNumberName":"V-component_of_WINDS"},"data":[0,0,0,0,0,0,0,0,0,0,0,0,0,0,0,0,0,0,0,0,0,0,0,0,0,0,0,0,0,0,0,0,0,0,0,0,0,0,0,0,0,0,0,0,0,0,0,0,0,0,0,0,0,0,0,0,0,0,1.8843,1.8845,0,1.9027,1.9029,1.9031,1.91,1.9099,1.9098,1.9098,1.9287,1.9292,1.9298,0,0,0,0,0,0,0,0,0,0,0,0,0,1.8553,1.8558,1.8843,1.8845,1.8847,1.9027,1.9029,1.9032,1.91,1.9099,1.9098,1.9097,1.9285,1.9291,1.9298,0,0,0,0,0,0,0,0,0,0,0,0,0,1.8702,1.8559,1.8842,1.8903,1.891,1.9026,1.9029,1.9033,1.91,1.9099,1.9098,1.9097,1.9283,1.9291,1.9299,1.9369,0,0,1.9325,1.9328,0,0,0,0,0,0,0,0,1.8693,1.8712,1.8892,1.8899,1.8907,1.9039,1.8996,1.9145,1.91,1.9028,1.9098,1.9097,1.9205,1.922,1.9256,1.9378,1.9386,1.9325,1.9331,1.9334,1.9336,0,0,0,0,0,0,0,1.8683,1.8705,1.8916,1.8894,1.8904,1.8922,1.8942,1.9025,1.9119,1.9034,1.9039,1.906,1.9209,1.9248,1.9261,1.9388,1.9325,1.9333,1.9338,1.9341,1.958,1.9582,0,0,0,0,0,0,1.8662,1.8696,1.891,1.8921,1.8796,1.8928,1.895,1.8998,1.9119,1.9136,1.9061,1.9063,1.9234,1.9251,1.9268,1.9361,1.9334,1.9342,1.9347,1.9579,1.9581,1.9582,0,0,0,0,0,0,1.8656,1.8681,1.8902,1.881,1.884,1.8934,1.8987,1.9002,1.9041,1.9139,1.9156,1.9083,1.9234,1.9256,1.9344,1.9368,1.9346,1.9353,1.9577,1.9579,1.9581,1.9544,0,0,0,0,0,0,1.8647,1.8678,1.8704,1.881,1.8844,1.8974,1.8988,1.9006,1.9055,1.9059,1.9164,1.9181,1.9235,1.9331,1.9352,1.9379,1.936,1.9576,1.9578,1.9581,1.9543,1.9544,1.9545,0,0,0,0,0,1.8636,1.8686,1.8705,1.8731,1.8879,1.8975,1.8995,1.9057,1.9057,1.9085,1.9149,1.9177,1.9362,1.934,1.9364,1.9394,1.9575,1.9578,1.958,1.9543,1.9544,1.9545,0,0,0,0,0,0,1.858,1.8701,1.8724,1.8808,1.8881,1.8987,1.9024,1.9055,1.913,1.913,1.9204,1.9227,1.931,1.936,1.9334,1.9469,1.947,1.9478,1.9433,1.9435,1.9436,1.9423,1.9367,0,0,0,0,0,1.8577,1.8644,1.8746,1.8812,1.8847,1.8929,1.8973,1.9015,1.9093,1.9124,1.9194,1.9269,1.9345,1.9392,1.9467,1.9551,1.9576,1.9583,1.9584,1.9584,1.9591,1.9643,1.9648,1.9592,1.9592,1.9592,0,0,1.8572,1.8647,1.8684,1.8802,1.8863,1.8933,1.8955,1.9026,1.9079,1.9135,1.9223,1.9277,1.9366,1.9453,1.9495,1.9498,1.9612,1.9588,1.9588,1.9594,1.9646,1.9651,1.9656,1.9594,1.9593,1.9593,0,0,1.8599,1.8661,1.8724,1.8785,1.8878,1.8933,1.8948,1.905,1.9088,1.9178,1.9222,1.9286,1.9413,1.9476,1.9525,1.9579,1.961,1.9601,1.9606,1.9655,1.966,1.9664,1.9686,1.9693,1.9607,1.9607,1.9607,0,1.8582,1.8687,1.8752,1.8823,1.8874,1.8929,1.8994,1.9051,1.9163,1.9198,1.92,1.9363,1.9427,1.9531,1.9545,1.9581,1.9602,1.959,1.9654,1.9659,1.9664,1.9686,1.9694,1.9605,1.9606,1.9606,1.9606,0,1.8663,1.8735,1.8775,1.8883,1.8939,1.9006,1.9083,1.9132,1.9169,1.9224,1.9316,1.9395,1.9488,1.9516,1.9552,1.9626,1.9625,1.9639,1.9642,1.9667,1.9689,1.9697,1.9603,1.9604,1.9604,1.9605,0,0,1.8658,1.8803,1.8817,1.8868,1.8976,1.9034,1.9105,1.9197,1.9239,1.9315,1.9378,1.9485,1.95,1.9555,1.96,1.9643,1.9685,1.9652,1.9656,1.9658,1.9775,1.9765,1.9773,1.9705,1.9707,1.9708,1.9768,0,1.8701,1.883,1.8892,1.8994,1.9064,1.9119,1.9181,1.9255,1.9309,1.9377,1.9436,1.9513,1.9525,1.9559,1.9604,1.967,1.9709,1.9666,1.9766,1.9769,1.9744,1.9784,1.9773,1.9826,1.9777,1.9778,1.9779,0,1.8768,1.8845,1.8955,1.9058,1.909,1.9144,1.9235,1.9298,1.9384,1.9421,1.9484,1.9527,1.9606,1.9602,1.9713,1.9682,1.9727,1.9766,1.9769,1.9782,1.9776,1.98,1.9844,1.9852,1.9793,1.9792,1.9791,0,1.8756,1.8888,1.8972,1.9014,1.9135,1.9173,1.9225,1.931,1.9362,1.9441,1.9477,1.9563,1.9612,1.9679,1.9745,1.9736,1.9851,1.9852,1.9885,1.9884,1.9908,1.9906,1.9961,1.9933,1.9933,1.9933,1.9933,0,1.8799,1.8864,1.8969,1.902,1.9096,1.9167,1.9241,1.9298,1.9373,1.9438,1.949,1.955,1.9633,1.9704,1.9757,1.9842,1.9863,1.9896,1.991,1.9893,1.9889,1.9924,1.9923,1.9935,1.9935,1.9934,1.9934,0,1.8799,1.8871,1.8967,1.9074,1.9103,1.9155,1.9248,1.9301,1.9358,1.944,1.9463,1.9553,1.964,1.9713,1.9826,1.9862,1.9952,1.9966,1.9923,1.993,1.996,1.9957,2.0042,2.0058,2.0017,2.0017,2.0017,0,1.8822,1.8874,1.8989,1.9036,1.9088,1.9163,1.9217,1.929,1.9345,1.9448,1.9489,1.958,1.9656,1.9792,1.9869,1.9956,1.9975,1.9999,1.9989,1.9971,1.9979,1.9976,1.9983,2.0,2.0,2.0,2.0,0,1.8856,1.889,1.8966,1.9056,1.9119,1.9193,1.9268,1.9304,1.9391,1.945,1.954,1.9599,1.9716,1.9806,1.9903,1.9958,1.9995,2.0002,2.0015,1.9999,1.9973,1.9991,1.9927,2.0,2.0,2.0,2.0,2.0,1.8871,1.8921,1.901,1.9094,1.9159,1.9228,1.9285,1.935,1.9426,1.9527,1.9566,1.9658,1.9746,1.988,1.9936,2.001,2.0015,2.0033,2.0038,2.0042,2.0041,1.996,2.0028,2.0028,2.0028,2.0028,2.0028,0,1.891,1.897,1.9047,1.9152,1.9218,1.9247,1.9332,1.9387,1.9467,1.9546,1.9621,1.9726,1.9814,1.9898,1.9991,2.0035,2.0054,2.0057,2.0056,2.0069,2.003,2.001,2.004,2.004,2.004,2.004,2.004,2.004,1.8938,1.9025,1.907,1.9192,1.9252,1.9343,1.939,1.9456,1.952,1.9635,1.9709,1.9763,1.9845,1.9946,2.0029,2.0052,2.0085,2.0084,2.0111,2.0073,2.0071,2.0069,2.0051,2.0089,2.009,2.0144,2.0145,2.0145]}]]